Miscellaneous Local Product
Issued by NWS Hastings, NE

Home | Current Version | Previous Version | Graphics & Text | Print | Product List | Glossary On
Versions: 1 2 3 4 5 6 7 8 9 10 11 12 13 14 15 16 17 18 19 20 21 22 23 24 25 26 27 28 29 30 31 32 33 34 35 36 37 38 39 40 41 42 43 44 45 46 47 48 49 50
915
AXUS43 KGID 290802
MISGRI

GID CWA HOURLY WEATHER ROUNDUP
NATIONAL WEATHER SERVICE HASTINGS NE
300 AM CDT FRI JUL 29 2016

NOTE: "FAIR" INDICATES FEW OR NO CLOUDS BELOW 12,000 FEET WITH NO
SIGNIFICANT WEATHER AND/OR OBSTRUCTIONS TO VISIBILITY.

...SOUTH CENTRAL NEBRASKA...

CITY           SKY/WX    TMP DP  RH WIND       PRES   REMARKS
GRAND ISLAND   PTCLDY    67  65  93 NW5       30.06F
HASTINGS       CLOUDY    65  64  97 CALM      30.07S
ORD            CLOUDY    64  62  93 NW5       30.08F
YORK           CLOUDY    66  64  94 CALM      30.04F
AURORA         MOCLDY    66  65  97 N5        30.05F
LEXINGTON      CLEAR     63  61  93 CALM      30.10F
HOLDREGE       CLEAR     64  62  94 CALM      30.08F FOG
HEBRON         MOCLDY    66  63  89 CALM      30.03S

...NEBRASKA PANHANDLE...

CITY           SKY/WX    TMP DP  RH WIND       PRES   REMARKS
CHADRON        CLEAR     60  56  86 SE5       30.15F
ALLIANCE       CLEAR     57  55  93 NE6       30.17F
SCOTTSBLUFF    CLEAR     61  58  90 S3        30.18S
SIDNEY         PTCLDY    60  58  92 SW7       30.21F

...WESTERN AND NORTH CENTRAL NEBRASKA...

CITY           SKY/WX    TMP DP  RH WIND       PRES   REMARKS
VALENTINE      CLOUDY    60  58  92 CALM      30.14S
AINSWORTH      CLOUDY    61  61 100 CALM      30.13S
ONEILL         CLOUDY    66  64  94 N6        30.10S
BROKEN BOW     PTCLDY    61  61 100 W3        30.11S
IMPERIAL       CLOUDY    64  61  90 W7        30.14F
NORTH PLATTE   CLEAR     58  57  97 N3        30.13F
MCCOOK         CLEAR     60  58  92 CALM      30.11F

...EASTERN NEBRASKA...

CITY           SKY/WX    TMP DP  RH WIND       PRES   REMARKS
NORFOLK        CLOUDY    68  62  81 NE3       30.05F
SO SIOUX CITY  CLOUDY    68  61  78 N7        30.04F
TEKAMAH        CLOUDY    65  62  90 N7        30.02F
COLUMBUS       CLOUDY    66  57  72 NE3       30.05F
ALBION         MOCLDY    67  63  86 W3        30.07S
OMAHA EPPLEY   CLOUDY    69  64  84 N7        30.00F
MILLARD        CLOUDY    73  64  73 CALM      30.01S
LINCOLN        PTCLDY    68  64  87 N5        30.03S
NEBRASKA CITY  CLOUDY    67  67 100 N5        30.01F
BEATRICE       PTCLDY    66  63  89 CALM      30.02R
FALLS CITY     MOCLDY    69  67  93 N5        29.99F

...NORTHERN KANSAS...

CITY           SKY/WX    TMP DP  RH WIND       PRES   REMARKS
GOODLAND       CLOUDY    65  61  87 SW3       30.16F
HILL CITY      LGT RAIN  68  67  96 CALM      30.06F
NORTON         MOSUNNY   64  63  94 N3        30.07F
SMITH CENTER   CLEAR     64  63  94 CALM      30.04F
BELOIT         CLEAR     64  64 100 CALM      30.00F
HAYS           PTCLDY    66  59  77 N5        30.02F
RUSSELL        CLOUDY    66  64  93 N6        30.00F
CONCORDIA      CLOUDY    67  65  93 CALM      30.00F
SALINA         CLOUDY    71  66  84 NE5       29.99F
TOPEKA         CLEAR     67  65  93 NW5       29.97F



USA.gov is the U.S. government's official web portal to all federal, state and local government web resources and services.